Content
SEND FEEDBACK

Daily
Averages
Monthly
Summary
United States of America

GLENVIEW, ILLINOIS


Home > North America > United States > Illinois
Elevation: 653 feet     Latitude: 42 05N     Longitude: 087 50W

WEATHER
 
SELECT A DAY
Number of Records: 199,784;   Date Range: 7/8/95 - 12/24/14
 
SHARE

PRINT THIS DATA

[ ← Previous Day ]
WEATHER ALMANAC - JANUARY 31, 2013
[ Next Day → ]
[ °C ]   °F
Weather ElementAverageHighLow
Temperature14.2 °F19.9 °F (12:52 am)5 °F (11:19 pm)
Dewpoint5.6 °F14 °F (12:33 am)-2.2 °F (11:19 pm)
Humidity69 %80 % (12:33 am)59 % (2:52 pm)
Barometer29.87 in30.18 in (11:52 pm)29.62 in (12:33 am)
Wind Speed14.9 mph23 mph (3:52 am)
Wind Gust33.4 mph (4:05 am)
Weather ElementAverage
Visibility7.7 mi
Wind DirectionWNW (280.7 °)

Weather ElementTotal
Precipitation---
Heating Degree Days52.6 (Base 65)
Averaged from 41 records on January 31, 2013
WEATHER CONDITIONS BREAKOUT
WIND DIRECTION BREAKOUT
WEATHER BY HOUR - JANUARY 31, 2013
[ °C ]   °F
Local TimeTemperatureDewpointHumidityBarometerVisibilityWind DirectionWind SpeedGust SpeedPrecipitationEventsConditions
12:33 AM19.4 °F14.0 °F80 %29.62 in5.0 miWNW (290°)10.4 mph0.00 inSnowLight Snow
12:52 AM19.9 °F14.0 °F78 %29.66 in5.0 miWest (280°)15.0 mph20.7 mph0.00 inSnowLight Snow
1:28 AM19.4 °F12.2 °F74 %29.65 in10.0 miWNW (290°)16.1 mph0.00 inOvercast
1:45 AM19.4 °F12.2 °F74 %29.66 in4.0 miWest (280°)13.8 mph23.0 mph0.00 inSnowLight Snow
1:52 AM19.0 °F12.0 °F74 %29.69 in4.0 miWest (280°)17.3 mph24.2 mph0.00 inSnowLight Snow
2:52 AM18.0 °F10.9 °F74 %29.71 in7.0 miWest (280°)13.8 mph23.0 mph0.00 inSnowLight Snow
3:52 AM18.0 °F8.1 °F65 %29.72 in9.0 miWNW (290°)23.0 mph29.9 mph0.00 inOvercast
4:05 AM17.6 °F6.8 °F63 %29.70 in10.0 miWNW (290°)17.3 mph33.4 mphOvercast
4:52 AM17.1 °F6.1 °F62 %29.74 in10.0 miWest (280°)16.1 mph29.9 mphOvercast
5:41 AM17.6 °F8.6 °F68 %29.73 in10.0 miWNW (290°)13.8 mph24.2 mphOvercast
5:52 AM17.1 °F8.1 °F68 %29.76 in9.0 miWNW (290°)15.0 mph20.7 mphOvercast
6:52 AM17.1 °F8.1 °F68 %29.78 in9.0 miWest (280°)9.2 mph20.7 mph0.00 inOvercast
7:00 AM17.6 °F8.6 °F68 %29.75 in9.0 miWest (270°)12.7 mphOvercast
7:52 AM16.0 °F7.0 °F68 %29.81 in7.0 miWest (270°)17.3 mph26.5 mph0.00 inOvercast
8:09 AM15.8 °F6.8 °F68 %29.79 in8.0 miWest (270°)17.3 mph21.9 mphMostly Cloudy
8:52 AM16.0 °F8.1 °F71 %29.84 in9.0 miWest (280°)13.8 mph23.0 mph0.00 inOvercast
9:03 AM15.8 °F8.6 °F73 %29.81 in1.0 miWest (280°)12.7 mph0.00 inSnowLight Snow
9:10 AM15.8 °F8.6 °F73 %29.81 in2.0 miWest (280°)15.0 mph23.0 mph0.00 inSnowLight Snow
9:19 AM15.8 °F8.6 °F73 %29.81 in5.0 miWest (260°)12.7 mph21.9 mph0.00 inHaze
9:29 AM15.8 °F8.6 °F73 %29.82 in4.0 miWest (280°)11.5 mph21.9 mph0.00 inSnowLight Snow
9:44 AM15.8 °F6.8 °F68 %29.82 in8.0 miWest (270°)12.7 mph0.00 inOvercast
9:52 AM16.0 °F8.1 °F71 %29.86 in4.0 miWest (280°)16.1 mph20.7 mph0.00 inSnowLight Snow
10:13 AM15.8 °F5.0 °F62 %29.84 in8.0 miWest (280°)16.1 mph21.9 mph0.00 inMostly Cloudy
10:22 AM15.8 °F6.8 °F68 %29.84 in8.0 miWest (280°)13.8 mph23.0 mph0.00 inMostly Cloudy
10:52 AM15.1 °F6.1 °F68 %29.88 in10.0 miWest (270°)16.1 mph23.0 mph0.00 inMostly Cloudy
11:52 AM15.1 °F6.1 °F68 %29.89 in5.0 miWest (280°)13.8 mph0.00 inHaze
12:52 PM14.0 °F6.1 °F71 %29.91 in4.0 miWest (270°)15.0 mph0.00 inSnowLight Snow
1:52 PM14.0 °F3.9 °F64 %29.92 in9.0 miWest (280°)16.1 mph21.9 mph0.00 inOvercast
2:52 PM14.0 °F1.9 °F59 %29.94 in10.0 miWest (270°)15.0 mph24.2 mph0.00 inOvercast
3:52 PM12.9 °F1.9 °F62 %29.96 in10.0 miWest (280°)13.8 mph23.0 mphOvercast
4:52 PM12.0 °F1.0 °F61 %29.99 in10.0 miWest (270°)17.3 mph21.9 mphOvercast
5:52 PM10.0 °F1.0 °F67 %30.02 in10.0 miWNW (290°)12.7 mph27.6 mphMostly Cloudy
6:02 PM10.4 °F-0.4 °F62 %29.99 in10.0 miWest (280°)13.8 mph20.7 mphScattered Clouds
6:52 PM9.0 °F0.0 °F67 %30.05 in10.0 miWest (270°)18.4 mph26.5 mphMostly Cloudy
7:52 PM8.1 °F-0.9 °F67 %30.09 in10.0 miWNW (290°)17.3 mph23.0 mphOvercast
8:52 PM7.0 °F-0.9 °F70 %30.11 in8.0 miWest (280°)15.0 mph21.9 mphOvercast
9:52 PM6.1 °F-0.9 °F73 %30.14 in7.0 miWNW (290°)11.5 mph25.3 mphOvercast
10:21 PM6.8 °F-0.4 °F72 %30.11 in8.0 miWNW (290°)17.3 mph21.9 mphOvercast
10:52 PM6.1 °F-2.0 °F69 %30.16 in8.0 miWNW (300°)16.1 mph23.0 mphOvercast
11:19 PM5.0 °F-2.2 °F72 %30.12 in10.0 miWNW (290°)12.7 mph21.9 mphScattered Clouds
11:52 PM5.0 °F-2.0 °F73 %30.18 in10.0 miWNW (290°)16.1 mph24.2 mphClear
Hourly data recorded from KPWK, located miles away from Glenview, Illinois







STORIES FROM OUR PARTNERS